Location: Alessandria
(44.9000°N, 8.6170°E)
Time: 02:06:42
(UTC+02:00)

ISS - Pass Details

Date: 15 May 2021
Orbit: 417 x 422 km, 51.6° (Epoch: 14 June)

Event Time Altitude Azimuth Distance (km) Brightness Sun altitude
Rises 23:37:03 0° 260° (W) 2,359 0.3 -21.7°
Reaches altitude 10° 23:39:13 10° 268° (W) 1,499 -0.7 -21.9°
Maximum altitude 23:42:25 40° 340° (NNW) 629 -2.4 -22.1°
Drops below altitude 10° 23:45:39 10° 52° (NE) 1,506 -0.8 -22.4°
Sets 23:47:50 0° 60° (ENE) 2,373 0.1 -22.5°
